Lowell Highlands, MA

10 Minute Time Series

20-Jan-2018 09:30 AM

TimeTempHumidityDewpointBarometerWindSpeedWindGustWind DirRain
20-Jan-2018 12:10 AM28.1°F75%21.2°F29.844 inHg2 mph7 mph182° (S)0.00 in
20-Jan-2018 12:20 AM28.1°F75%21.2°F29.840 inHg2 mph7 mph183° (S)0.00 in
20-Jan-2018 12:30 AM28.1°F74%20.9°F29.847 inHg2 mph6 mph204° (SSW)0.00 in
20-Jan-2018 12:40 AM28.1°F74%20.9°F29.831 inHg2 mph6 mph187° (S)0.00 in
20-Jan-2018 12:50 AM28.2°F74%21.0°F29.818 inHg3 mph6 mph177° (S)0.00 in
20-Jan-2018 01:00 AM28.4°F73%20.9°F29.814 inHg2 mph6 mph180° (S)0.00 in
20-Jan-2018 01:10 AM28.5°F73%21.0°F29.811 inHg2 mph6 mph216° (SW)0.00 in
20-Jan-2018 01:20 AM28.7°F72%20.8°F29.806 inHg4 mph7 mph200° (SSW)0.00 in
20-Jan-2018 01:30 AM28.8°F72%20.9°F29.807 inHg3 mph8 mph205° (SSW)0.00 in
20-Jan-2018 01:40 AM28.7°F72%20.8°F29.808 inHg3 mph8 mph184° (S)0.00 in
20-Jan-2018 01:50 AM28.6°F72%20.7°F29.810 inHg2 mph6 mph184° (S)0.00 in
20-Jan-2018 02:00 AM28.5°F72%20.6°F29.812 inHg2 mph7 mph183° (S)0.00 in
20-Jan-2018 02:10 AM28.4°F73%20.9°F29.804 inHg2 mph7 mph183° (S)0.00 in
20-Jan-2018 02:20 AM28.4°F73%20.9°F29.808 inHg1 mph5 mph205° (SSW)0.00 in
20-Jan-2018 02:30 AM28.4°F73%20.9°F29.805 inHg1 mph3 mph185° (S)0.00 in
20-Jan-2018 02:40 AM28.4°F73%20.9°F29.790 inHg3 mph4 mph163° (SSE)0.00 in
20-Jan-2018 02:50 AM28.5°F73%21.0°F29.795 inHg2 mph5 mph180° (S)0.00 in
20-Jan-2018 03:00 AM28.6°F73%21.1°F29.798 inHg1 mph5 mph188° (S)0.00 in
20-Jan-2018 03:10 AM28.7°F73%21.2°F29.793 inHg1 mph3 mph209° (SSW)0.00 in
20-Jan-2018 03:20 AM28.9°F73%21.4°F29.787 inHg2 mph5 mph197° (SSW)0.00 in
20-Jan-2018 03:30 AM29.1°F73%21.5°F29.783 inHg2 mph5 mph207° (SSW)0.00 in
20-Jan-2018 03:40 AM29.4°F73%21.8°F29.787 inHg2 mph7 mph206° (SSW)0.00 in
20-Jan-2018 03:50 AM29.5°F73%21.9°F29.778 inHg2 mph7 mph205° (SSW)0.00 in
20-Jan-2018 04:00 AM29.7°F72%21.8°F29.766 inHg3 mph5 mph181° (S)0.00 in
20-Jan-2018 04:10 AM29.7°F72%21.8°F29.753 inHg3 mph5 mph173° (S)0.00 in
20-Jan-2018 04:20 AM29.8°F72%21.9°F29.736 inHg3 mph7 mph172° (S)0.00 in
20-Jan-2018 04:30 AM29.9°F72%22.0°F29.737 inHg3 mph7 mph190° (S)0.00 in
20-Jan-2018 04:40 AM30.1°F72%22.2°F29.740 inHg3 mph7 mph195° (SSW)0.00 in
20-Jan-2018 04:50 AM30.3°F72%22.4°F29.727 inHg4 mph8 mph182° (S)0.00 in
20-Jan-2018 05:00 AM30.3°F72%22.4°F29.717 inHg4 mph8 mph186° (S)0.00 in
20-Jan-2018 05:10 AM30.3°F72%22.4°F29.713 inHg3 mph8 mph178° (S)0.00 in
20-Jan-2018 05:20 AM30.3°F72%22.4°F29.705 inHg3 mph9 mph188° (S)0.00 in
20-Jan-2018 05:30 AM30.5°F72%22.6°F29.700 inHg3 mph9 mph189° (S)0.00 in
20-Jan-2018 05:40 AM30.7°F72%22.8°F29.703 inHg2 mph8 mph206° (SSW)0.00 in
20-Jan-2018 05:50 AM30.8°F72%22.9°F29.704 inHg2 mph6 mph203° (SSW)0.00 in
20-Jan-2018 06:00 AM31.2°F72%23.2°F29.696 inHg3 mph7 mph202° (SSW)0.00 in
20-Jan-2018 06:10 AM31.5°F71%23.2°F29.692 inHg3 mph7 mph208° (SSW)0.00 in
20-Jan-2018 06:20 AM31.7°F71%23.4°F29.689 inHg3 mph7 mph195° (SSW)0.00 in
20-Jan-2018 06:30 AM31.8°F71%23.5°F29.687 inHg3 mph9 mph200° (SSW)0.00 in
20-Jan-2018 06:40 AM32.0°F70%23.3°F29.680 inHg4 mph9 mph216° (SW)0.00 in
20-Jan-2018 06:50 AM32.3°F70%23.6°F29.680 inHg3 mph8 mph216° (SW)0.00 in
20-Jan-2018 07:00 AM32.8°F69%23.8°F29.686 inHg3 mph8 mph220° (SW)0.00 in
20-Jan-2018 07:10 AM33.1°F69%24.1°F29.685 inHg4 mph8 mph220° (SW)0.00 in
20-Jan-2018 07:20 AM33.1°F69%24.1°F29.687 inHg3 mph8 mph221° (SW)0.00 in
20-Jan-2018 07:30 AM33.3°F68%23.9°F29.680 inHg3 mph7 mph217° (SW)0.00 in
20-Jan-2018 07:40 AM33.4°F68%24.0°F29.673 inHg4 mph7 mph213° (SSW)0.00 in
20-Jan-2018 07:50 AM33.6°F68%24.2°F29.677 inHg4 mph7 mph222° (SW)0.00 in
20-Jan-2018 08:00 AM33.7°F68%24.3°F29.673 inHg3 mph7 mph209° (SSW)0.00 in
20-Jan-2018 08:10 AM33.8°F68%24.4°F29.669 inHg4 mph9 mph205° (SSW)0.00 in
20-Jan-2018 08:20 AM34.1°F68%24.7°F29.676 inHg4 mph9 mph219° (SW)0.00 in
20-Jan-2018 08:30 AM34.3°F67%24.5°F29.673 inHg4 mph9 mph220° (SW)0.00 in
20-Jan-2018 08:40 AM34.5°F67%24.7°F29.667 inHg4 mph12 mph216° (SW)0.00 in
20-Jan-2018 08:50 AM34.9°F66%24.7°F29.665 inHg5 mph12 mph218° (SW)0.00 in
20-Jan-2018 09:00 AM35.4°F66%25.2°F29.667 inHg5 mph10 mph219° (SW)0.00 in
20-Jan-2018 09:10 AM36.0°F64%25.0°F29.657 inHg5 mph10 mph222° (SW)0.00 in
20-Jan-2018 09:20 AM36.8°F63%25.4°F29.660 inHg5 mph11 mph225° (SW)0.00 in
20-Jan-2018 09:30 AM37.5°F61%25.3°F29.667 inHg5 mph12 mph228° (SW)0.00 in